Regional Weather Roundup
Issued by NWS

Home | Current Version | Previous Version | Graphics & Text | Print | Product List | Glossary On
Versions: 1 2 3 4 5 6 7 8 9 10 11 12 13 14 15 16 17 18 19 20 21 22 23 24 25 26 27 28 29 30 31 32 33 34 35 36 37 38 39 40 41 42 43 44 45 46 47 48 49 50
000
ASUS43 KLOT 281709
RWRIL

ILLINOIS REGIONAL WEATHER ROUNDUP
NATIONAL WEATHER SERVICE CHICAGO/ROMEOVILLE IL
1200 PM CDT FRI AUG 28 2015

NOTE: "FAIR" INDICATES FEW OR NO CLOUDS BELOW 12,000 FEET WITH NO
SIGNIFICANT WEATHER AND/OR OBSTRUCTIONS TO VISIBILITY.

* THESE STATIONS ARE NOT UNDER NWS QUALITY CONTROL. THEY ALSO MAY NOT
  REPORT WEATHER SUCH AS PRECIPITATION OR FOG.

ILZ001-002-007-009-015-016-024-281800-
NORTHWEST ILLINOIS

CITY           SKY/WX    TMP DP  RH WIND       PRES   REMARKS
MOLINE         CLOUDY    68  61  78 SE7       30.10S
STERLING*      CLOUDY    70  61  73 SE6       30.11S
SAVANNA*       CLOUDY    68  59  73 SE5       30.11F
$$

ILZ003-004-008-010-011-017-018-281800-
NORTH CENTRAL ILLINOIS

CITY           SKY/WX    TMP DP  RH WIND       PRES   REMARKS
ROCKFORD       CLOUDY    68  60  75 S6        30.15S
FREEPORT*      CLOUDY    65  61  85 SE3       30.15S
ROCHELLE*      CLOUDY    67  61  80 CALM      30.14F
DE KALB*       CLOUDY    67  62  83 S6        30.16S
PERU*          CLOUDY    70  61  71 S8        30.14F
$$

ILZ005-006-012>014-019>023-281800-
NORTHEAST ILLINOIS

CITY           SKY/WX    TMP DP  RH WIND       PRES   REMARKS
CHICAGO-OHARE  CLOUDY    71  59  65 SW9       30.14S
CHICAGO-MIDWAY CLOUDY    74  60  61 S7        30.15S
AURORA         CLOUDY    69  61  75 S6        30.16S
LANSING*       CLOUDY    73  62  68 SW7       30.15F
JOLIET*        CLOUDY    72  63  73 S3        30.16S
WAUKEGAN       CLOUDY    72  61  68 VRB3      30.14S
DUPAGE AIRPORT CLOUDY    70  60  70 S7        30.15R
KANKAKEE*      CLOUDY    74  64  71 CALM      30.16F
WHEELING       CLOUDY    73  58  59 SW9       30.15F
MORRIS*        CLOUDY    71  62  74 SW3       30.14S
ROMEOVILLE*    CLOUDY    71  60  68 SW6       30.16S
NORTHERLY ISL    N/A     73  57  57 S8          N/A
$$

LMZ740>746-281800-
SOUTHERN LAKE MICHIGAN

STATION/POSITION SKY/WX   TEMP    WIND        PRES    VSBY  WAVE
                          AIR SEA DIR/SP/G                  HT/PER
                          (F)     (DEG/KT/KT) (MB)    (MI)  (FT/S)
SOUTHERN BUOY              67 68  170/  8/ 10 1020.7F         1/ 4
WILMETTE HARBOR            63 55  270/  2/  4   N/A           1/ 3
HARRISON CRIB              68     160/  9/ 11   N/A
BURNHAM HARBOR             73     190/  8/ 10   N/A
CALUMET HARBOR             71     210/  5/  8   N/A
BURNS HARBOR               72     190/  9/ 11 1021.3F
MICHIGAN CITY              70     170/  5/  7   N/A
MICHIGAN CITY 6N           72 71  200/  4/  4   N/A           0
ST. JOSEPH                 70 71  280/  2/  2   N/A           1
$$

ILZ025>027-034>036-040-047-049-050-058-095>099-281800-
WEST-CENTRAL ILLINOIS

CITY           SKY/WX    TMP DP  RH WIND       PRES   REMARKS
QUINCY         CLOUDY    72  60  66 S14       30.08S
GALESBURG*     CLOUDY    70  62  76 SE6       30.11S
MACOMB*        CLOUDY    72  62  71 S7        30.12F
JACKSONVILLE*  CLOUDY    77  62  58 SE13      30.10F
PITTSFIELD*    CLOUDY    76  62  63 SE10      30.10F
$$

ILZ028>032-037-038-041>044-048-051>054-059>061-281800-
CENTRAL ILLINOIS

CITY           SKY/WX    TMP DP  RH WIND       PRES   REMARKS
PONTIAC        CLOUDY    75  64  67 S6        30.16S
BLOOMINGTON    CLOUDY    76  62  61 S8        30.16S
DECATUR        LGT RAIN  77  58  51 SE9       30.15S
PEORIA         CLOUDY    74  61  63 SE8       30.12F
LACON*         CLOUDY    71  62  72 S6        30.12F
LINCOLN*       CLOUDY    78  61  55 S7        30.13F
SPRINGFIELD    CLOUDY    77  61  57 S9        30.12F
TAYLORVILLE    PTSUNNY   75  61  60 S6        30.14S
$$

ILZ033-039-045-046-055>057-062-063-281800-
EAST-CENTRAL ILLINOIS

CITY           SKY/WX    TMP DP  RH WIND       PRES   REMARKS
CHAMPAIGN      CLOUDY    77  60  55 S6        30.16F
RANTOUL*       CLOUDY    77  62  60 SE7       30.16F
MATTOON        PTSUNNY   77  57  50 S8        30.15F
PARIS*         MOSUNNY   76  60  55 S6        30.17F
$$

ILZ079-100>102-281800-
SOUTHWEST ILLINOIS

CITY           SKY/WX    TMP DP  RH WIND       PRES   REMARKS
ALTON          CLOUDY    75  59  57 SE8       30.12F
BELLEVILLE     MOSUNNY   78  64  60 E9        30.11F HX  80
CAHOKIA*       MOSUNNY   78  61  55 S8        30.11F HX  80
SPARTA*        MOSUNNY   77  63  62 S5        30.14F
$$

ILZ064>066-069>071-074>076-080>082-084>086-088>090-092>094-281800-
SOUTH-CENTRAL ILLINOIS

CITY           SKY/WX    TMP DP  RH WIND       PRES   REMARKS
CARBONDALE     MOSUNNY   77  59  53 E9        30.13F
CAIRO*         SUNNY     79  63  57 E5        30.12F HX  81
EFFINGHAM*     PTSUNNY   77  56  47 SE9       30.17F
MARION         MOSUNNY   79  59  50 SE7       30.15S HX  80
MT. VERNON     PTSUNNY   79  59  50 E8        30.16S HX  80
SALEM*         PTSUNNY   78  58  50 S8        30.15S
METROPOLIS*    SUNNY     80  64  58 E3        30.13F HX  81
$$

ILZ067-068-072-073-078-083-087-091-281800-
SOUTHEAST ILLINOIS

CITY           SKY/WX    TMP DP  RH WIND       PRES   REMARKS
LAWRENCEVILLE  PTSUNNY   77  57  50 E7        30.17S
FLORA*         PTSUNNY   77  58  51 SE6       30.16F
FAIRFIELD*     PTSUNNY   77  60  54 E7        30.14F
HARRISBURG*    MOSUNNY   78  58  49 E7        30.14F
ROBINSON*      PTSUNNY   78  59  51 SE5       30.18S
CARMI*         PTSUNNY   77  61  57 E9        30.14F
$$

ABBREVIATIONS USED IN REMARKS
   TC - TEMPERATURE IN CELSIUS
  WCI - WIND CHILL INDEX
   HX - HEAT INDEX
  VSB - VISIBILITY
$$



USA.gov is the U.S. government's official web portal to all federal, state and local government web resources and services.